[[{"header":{"parameterUnit":"m.s-1","parameterCategory":1,"la1":30.2991,"la2":30.254,"lo1":-89.0895,"lo2":-89.0444,"dy":0.0017,"dx":0.0017,"nx":28,"ny":28,"refTime":"2023-09-27T03:00:00:Z","depth":0,"parameterNumber":2,"parameterNumberName":"U-component_of_WINDS"},"data":[0,0,0,0,0,0,0,0,0,0,0,0,0,0,0,0,0,0,0,0,0,0,0,0,0,0,0,0,0,0,0,0,0,0,0,0,0,0,0,0,0,0,0,0,0,0,0,0,0,0,0,0,0,0,0,0,0,0,-3.5874,-3.5874,0,-3.5879,-3.5879,-3.5879,-3.5784,-3.5782,-3.5779,-3.5777,-3.5786,-3.5788,-3.5791,0,0,0,0,0,0,0,0,0,0,0,0,0,-3.5785,-3.5787,-3.5874,-3.5874,-3.5874,-3.5879,-3.5879,-3.5879,-3.5785,-3.5781,-3.5778,-3.5775,-3.5785,-3.5788,-3.5791,0,0,0,0,0,0,0,0,0,0,0,0,0,-3.5811,-3.5788,-3.5874,-3.5827,-3.5823,-3.5879,-3.5879,-3.5879,-3.5785,-3.5781,-3.5778,-3.5774,-3.5784,-3.5788,-3.5792,-3.5894,0,0,-3.5804,-3.5805,0,0,0,0,0,0,0,0,-3.5809,-3.5814,-3.5834,-3.5831,-3.5826,-3.5827,-3.5851,-3.5884,-3.5786,-3.58,-3.5777,-3.5772,-3.5803,-3.5805,-3.5815,-3.5894,-3.5894,-3.5804,-3.5806,-3.5808,-3.5809,0,0,0,0,0,0,0,-3.5808,-3.5813,-3.5876,-3.5835,-3.583,-3.5807,-3.5807,-3.5857,-3.5823,-3.5798,-3.5791,-3.5793,-3.58,-3.5811,-3.5814,-3.5894,-3.5804,-3.5807,-3.581,-3.5811,-3.6059,-3.6063,0,0,0,0,0,0,-3.5812,-3.5812,-3.5876,-3.5876,-3.5808,-3.5812,-3.5811,-3.5831,-3.5822,-3.5817,-3.5797,-3.5789,-3.5806,-3.581,-3.5814,-3.5934,-3.5808,-3.5812,-3.5814,-3.6055,-3.606,-3.6065,0,0,0,0,0,0,-3.581,-3.5818,-3.5876,-3.5843,-3.5848,-3.5818,-3.584,-3.5833,-3.5844,-3.5821,-3.5815,-3.5814,-3.5803,-3.5808,-3.5874,-3.5933,-3.5814,-3.5817,-3.605,-3.6057,-3.6062,-3.6175,0,0,0,0,0,0,-3.5808,-3.5818,-3.5856,-3.5844,-3.585,-3.5936,-3.5844,-3.5836,-3.5851,-3.584,-3.5835,-3.5831,-3.5801,-3.5869,-3.5879,-3.5936,-3.582,-3.6045,-3.6053,-3.606,-3.6166,-3.6184,-3.62,0,0,0,0,0,-3.5805,-3.5888,-3.5859,-3.5867,-3.5897,-3.5939,-3.5943,-3.5905,-3.5856,-3.5894,-3.5879,-3.5831,-3.5925,-3.5877,-3.5886,-3.5946,-3.6041,-3.6051,-3.606,-3.6158,-3.618,-3.6199,0,0,0,0,0,0,-3.5909,-3.5886,-3.5853,-3.5934,-3.5939,-3.5923,-3.597,-3.593,-3.595,-3.594,-3.5893,-3.5893,-3.5967,-3.5963,-3.591,-3.6045,-3.5974,-3.5986,-3.6046,-3.6067,-3.6083,-3.6084,-3.5824,0,0,0,0,0,-3.5941,-3.5976,-3.5954,-3.6028,-3.6032,-3.6001,-3.6018,-3.5988,-3.5993,-3.5995,-3.5985,-3.5992,-3.6022,-3.6044,-3.6071,-3.6164,-3.6162,-3.621,-3.6227,-3.6241,-3.6253,-3.6303,-3.6324,-3.6096,-3.6096,-3.6096,0,0,-3.6008,-3.6,-3.6025,-3.6049,-3.6049,-3.6088,-3.6004,-3.6048,-3.6077,-3.6002,-3.6064,-3.6057,-3.6061,-3.6142,-3.6177,-3.6141,-3.6315,-3.6253,-3.6265,-3.6268,-3.6315,-3.6337,-3.6356,-3.6102,-3.6101,-3.61,0,0,-3.615,-3.6147,-3.6208,-3.6211,-3.6212,-3.6191,-3.6206,-3.6196,-3.6188,-3.6249,-3.6194,-3.6228,-3.6282,-3.6288,-3.6298,-3.6443,-3.64,-3.6453,-3.6543,-3.6593,-3.6611,-3.6626,-3.668,-3.6699,-3.6464,-3.6464,-3.6465,0,-3.6234,-3.6289,-3.6246,-3.6294,-3.6307,-3.6239,-3.6302,-3.6306,-3.6318,-3.6329,-3.6288,-3.6354,-3.6352,-3.6434,-3.6469,-3.6479,-3.6496,-3.6454,-3.6611,-3.6627,-3.6641,-3.6691,-3.6711,-3.6471,-3.647,-3.6469,-3.6469,0,-3.6393,-3.6432,-3.6482,-3.6494,-3.6512,-3.6568,-3.6533,-3.6557,-3.6526,-3.6509,-3.6573,-3.6568,-3.6594,-3.661,-3.6581,-3.6688,-3.6666,-3.6619,-3.6547,-3.667,-3.6717,-3.6735,-3.648,-3.6478,-3.6476,-3.6474,0,0,-3.6602,-3.6588,-3.6607,-3.6612,-3.6609,-3.664,-3.6692,-3.6716,-3.6738,-3.6748,-3.6793,-3.684,-3.6796,-3.6808,-3.6778,-3.6821,-3.6939,-3.6769,-3.6768,-3.6802,-3.7059,-3.7096,-3.7119,-3.6909,-3.6913,-3.6916,-3.7059,0,-3.6742,-3.6831,-3.6793,-3.6886,-3.6923,-3.6859,-3.6905,-3.6909,-3.6895,-3.6925,-3.6909,-3.6944,-3.6883,-3.689,-3.693,-3.6916,-3.699,-3.6905,-3.6952,-3.6955,-3.6955,-3.7143,-3.7182,-3.7318,-3.7077,-3.708,-3.7082,0,-3.6917,-3.6933,-3.703,-3.7021,-3.7035,-3.7078,-3.7097,-3.7126,-3.7129,-3.7116,-3.7129,-3.709,-3.7142,-3.7069,-3.7142,-3.7086,-3.7102,-3.7099,-3.7103,-3.7108,-3.7027,-3.7155,-3.736,-3.7381,-3.711,-3.7108,-3.7106,0,-3.7062,-3.7108,-3.7172,-3.7178,-3.7169,-3.72,-3.7198,-3.7197,-3.7215,-3.7232,-3.7243,-3.7266,-3.728,-3.7299,-3.7268,-3.7217,-3.7346,-3.727,-3.7338,-3.734,-3.737,-3.7369,-3.7583,-3.7378,-3.7378,-3.7377,-3.7377,0,-3.7223,-3.7286,-3.7237,-3.7277,-3.7346,-3.7301,-3.7371,-3.7361,-3.7362,-3.7399,-3.7345,-3.7382,-3.7337,-3.737,-3.7346,-3.7411,-3.7417,-3.741,-3.7403,-3.7416,-3.7417,-3.7427,-3.7418,-3.7383,-3.7382,-3.7381,-3.738,0,-3.7398,-3.7368,-3.7434,-3.7419,-3.7417,-3.7468,-3.7456,-3.7493,-3.7475,-3.7523,-3.7532,-3.7504,-3.754,-3.751,-3.7546,-3.7529,-3.7617,-3.7595,-3.7615,-3.761,-3.7681,-3.7675,-3.7911,-3.794,-3.7715,-3.7717,-3.7719,0,-3.7503,-3.755,-3.754,-3.7561,-3.7562,-3.7596,-3.7613,-3.7572,-3.7592,-3.76,-3.7636,-3.7667,-3.769,-3.7751,-3.7735,-3.7762,-3.7742,-3.7823,-3.7746,-3.7758,-3.7746,-3.7744,-3.775,-3.7839,-3.7842,-3.7844,-3.7846,0,-3.7695,-3.7678,-3.7704,-3.7725,-3.7747,-3.7762,-3.7773,-3.7793,-3.7751,-3.7777,-3.7812,-3.783,-3.7866,-3.7898,-3.792,-3.7918,-3.7877,-3.787,-3.7887,-3.7902,-3.7912,-3.791,-3.766,-3.7865,-3.7863,-3.7862,-3.7861,-3.786,-3.7839,-3.7878,-3.7878,-3.7909,-3.7912,-3.7924,-3.7958,-3.7944,-3.7972,-3.7998,-3.7971,-3.8015,-3.8018,-3.8043,-3.8047,-3.8081,-3.8048,-3.8073,-3.808,-3.8087,-3.8098,-3.7905,-3.8085,-3.8084,-3.8084,-3.8083,-3.8083,0,-3.803,-3.8026,-3.8055,-3.8072,-3.8097,-3.8052,-3.8062,-3.8087,-3.8126,-3.8131,-3.8155,-3.8197,-3.8228,-3.8214,-3.8241,-3.8272,-3.8253,-3.8281,-3.8279,-3.828,-3.8125,-3.8108,-3.8295,-3.8295,-3.8295,-3.8295,-3.8295,-3.8295,-3.8132,-3.8195,-3.8179,-3.8244,-3.8239,-3.8281,-3.8291,-3.8302,-3.8306,-3.8355,-3.838,-3.837,-3.8369,-3.8396,-3.8423,-3.8418,-3.8432,-3.8467,-3.8455,-3.8312,-3.8291,-3.8271,-3.8255,-3.8469,-3.847,-3.8607,-3.8608,-3.8609]},{"header":{"parameterUnit":"m.s-1","parameterCategory":1,"la1":30.2991,"la2":30.254,"lo1":-89.0895,"lo2":-89.0444,"dy":0.0017,"dx":0.0017,"nx":28,"ny":28,"refTime":"2023-09-27T03:00:00:Z","depth":0,"parameterNumber":3,"parameterNumberName":"V-component_of_WINDS"},"data":[0,0,0,0,0,0,0,0,0,0,0,0,0,0,0,0,0,0,0,0,0,0,0,0,0,0,0,0,0,0,0,0,0,0,0,0,0,0,0,0,0,0,0,0,0,0,0,0,0,0,0,0,0,0,0,0,0,0,-3.4378,-3.4378,0,-3.4428,-3.4429,-3.4429,-3.4393,-3.4391,-3.439,-3.4388,-3.4436,-3.4439,-3.4442,0,0,0,0,0,0,0,0,0,0,0,0,0,-3.4246,-3.4249,-3.4378,-3.4379,-3.4379,-3.4428,-3.4429,-3.443,-3.4393,-3.4391,-3.4389,-3.4387,-3.4435,-3.4438,-3.4442,0,0,0,0,0,0,0,0,0,0,0,0,0,-3.4301,-3.425,-3.4378,-3.4367,-3.4367,-3.4428,-3.4429,-3.443,-3.4393,-3.4391,-3.4389,-3.4386,-3.4434,-3.4438,-3.4442,-3.4516,0,0,-3.4455,-3.4457,0,0,0,0,0,0,0,0,-3.4298,-3.4306,-3.4368,-3.4368,-3.4367,-3.4402,-3.44,-3.4459,-3.4394,-3.4383,-3.4388,-3.4385,-3.4426,-3.4431,-3.4446,-3.4518,-3.452,-3.4455,-3.4458,-3.446,-3.4461,0,0,0,0,0,0,0,-3.4294,-3.4303,-3.4398,-3.4369,-3.4369,-3.4358,-3.4363,-3.4411,-3.4417,-3.4384,-3.4381,-3.4388,-3.4426,-3.4442,-3.4447,-3.4521,-3.4455,-3.4459,-3.4461,-3.4463,-3.4657,-3.466,0,0,0,0,0,0,-3.4292,-3.43,-3.4396,-3.4399,-3.4326,-3.4363,-3.4368,-3.4393,-3.4417,-3.4418,-3.439,-3.4386,-3.4436,-3.4442,-3.4448,-3.4537,-3.446,-3.4464,-3.4466,-3.4654,-3.4658,-3.4661,0,0,0,0,0,0,-3.4289,-3.4301,-3.4394,-3.4349,-3.436,-3.4368,-3.4396,-3.4395,-3.4411,-3.4422,-3.4422,-3.4406,-3.4434,-3.4442,-3.45,-3.4538,-3.4465,-3.4469,-3.4651,-3.4655,-3.4659,-3.4715,0,0,0,0,0,0,-3.4286,-3.43,-3.4329,-3.435,-3.4363,-3.4446,-3.4398,-3.4398,-3.4419,-3.4415,-3.4436,-3.4438,-3.4433,-3.4494,-3.4504,-3.4542,-3.4472,-3.4648,-3.4653,-3.4658,-3.471,-3.472,-3.4729,0,0,0,0,0,-3.4281,-3.4342,-3.4331,-3.4342,-3.44,-3.4449,-3.4456,-3.445,-3.4422,-3.4451,-3.4458,-3.4437,-3.4532,-3.45,-3.4511,-3.4551,-3.4646,-3.4652,-3.4657,-3.4705,-3.4718,-3.4729,0,0,0,0,0,0,-3.4324,-3.4344,-3.4332,-3.4402,-3.4424,-3.4442,-3.4479,-3.4464,-3.4493,-3.4488,-3.4478,-3.4483,-3.4544,-3.4553,-3.4517,-3.4624,-3.4584,-3.4593,-3.4617,-3.4629,-3.4639,-3.4636,-3.4476,0,0,0,0,0,-3.4341,-3.4381,-3.4396,-3.4456,-3.4468,-3.4471,-3.4492,-3.4486,-3.4508,-3.4517,-3.4528,-3.4549,-3.4583,-3.4606,-3.4639,-3.471,-3.4714,-3.4743,-3.4753,-3.4761,-3.4769,-3.4808,-3.4821,-3.468,-3.468,-3.468,0,0,-3.4378,-3.4394,-3.4419,-3.4465,-3.4481,-3.4522,-3.4479,-3.4523,-3.4553,-3.4523,-3.4579,-3.4587,-3.461,-3.4675,-3.4705,-3.4685,-3.4809,-3.4769,-3.4775,-3.4779,-3.4816,-3.4829,-3.4841,-3.4684,-3.4683,-3.4683,0,0,-3.4466,-3.4482,-3.4534,-3.4552,-3.4577,-3.4579,-3.4592,-3.4613,-3.4618,-3.4674,-3.4652,-3.4686,-3.4746,-3.4763,-3.478,-3.4874,-3.4856,-3.4885,-3.4937,-3.4975,-3.4986,-3.4996,-3.503,-3.5043,-3.4892,-3.4892,-3.4892,0,-3.4508,-3.4569,-3.4563,-3.4609,-3.463,-3.4605,-3.4658,-3.4674,-3.4709,-3.4723,-3.4701,-3.4776,-3.4789,-3.4858,-3.4882,-3.4895,-3.4909,-3.4883,-3.4985,-3.4995,-3.5004,-3.5037,-3.505,-3.4896,-3.4895,-3.4895,-3.4895,0,-3.462,-3.4663,-3.4701,-3.4737,-3.4762,-3.4811,-3.4811,-3.4836,-3.4828,-3.4832,-3.4889,-3.4904,-3.4939,-3.4955,-3.4946,-3.5023,-3.501,-3.4986,-3.4946,-3.5021,-3.5052,-3.5064,-3.4901,-3.4899,-3.4898,-3.4897,0,0,-3.4738,-3.4769,-3.4784,-3.48,-3.4826,-3.4858,-3.4906,-3.4942,-3.4964,-3.4988,-3.5028,-3.5078,-3.5057,-3.5076,-3.5069,-3.5102,-3.5177,-3.5074,-3.5074,-3.5094,-3.5263,-3.5282,-3.5297,-3.5164,-3.5167,-3.5169,-3.5262,0,-3.4828,-3.4913,-3.4908,-3.4987,-3.5026,-3.5004,-3.5045,-3.5065,-3.507,-3.5102,-3.5107,-3.5144,-3.5112,-3.5123,-3.5155,-3.5161,-3.5211,-3.5154,-3.5201,-3.5203,-3.5198,-3.5313,-3.5333,-3.542,-3.5274,-3.5276,-3.5277,0,-3.4945,-3.4975,-3.5059,-3.508,-3.5096,-3.5134,-3.5166,-3.5198,-3.522,-3.5221,-3.5242,-3.5229,-3.5276,-3.5234,-3.5298,-3.526,-3.5278,-3.5284,-3.5287,-3.5293,-3.5246,-3.5323,-3.5448,-3.5462,-3.5296,-3.5294,-3.5293,0,-3.5024,-3.5085,-3.5143,-3.5157,-3.5183,-3.521,-3.5222,-3.5241,-3.5263,-3.5291,-3.5305,-3.5337,-3.5355,-3.538,-3.5376,-3.5345,-3.5442,-3.5399,-3.5444,-3.5444,-3.5467,-3.5466,-3.5598,-3.5476,-3.5476,-3.5476,-3.5476,0,-3.5127,-3.5179,-3.5179,-3.5215,-3.5273,-3.5266,-3.5323,-3.5331,-3.5349,-3.5385,-3.5366,-3.54,-3.5392,-3.5426,-3.5423,-3.5477,-3.5485,-3.5487,-3.5486,-3.549,-3.549,-3.5503,-3.5497,-3.5479,-3.5479,-3.5478,-3.5477,0,-3.5226,-3.5228,-3.529,-3.5309,-3.5315,-3.5357,-3.5373,-3.5406,-3.5409,-3.5455,-3.5466,-3.547,-3.5509,-3.5507,-3.555,-3.5548,-3.5615,-3.5606,-3.5609,-3.5608,-3.5653,-3.565,-3.58,-3.582,-3.5684,-3.5685,-3.5686,0,-3.5292,-3.5332,-3.5356,-3.538,-3.5394,-3.5432,-3.5454,-3.5448,-3.5472,-3.55,-3.5531,-3.5568,-3.5597,-3.566,-3.5666,-3.5699,-3.5692,-3.5742,-3.5696,-3.5699,-3.5694,-3.5692,-3.5697,-3.5751,-3.5753,-3.5754,-3.5755,0,-3.5409,-3.5409,-3.5443,-3.5478,-3.5506,-3.5532,-3.5557,-3.5577,-3.5573,-3.5601,-3.5641,-3.5665,-3.5709,-3.5747,-3.5778,-3.5788,-3.5772,-3.5769,-3.5782,-3.5787,-3.5788,-3.5789,-3.5635,-3.5766,-3.5765,-3.5764,-3.5764,-3.5763,-3.5495,-3.553,-3.5552,-3.5591,-3.5609,-3.5632,-3.5665,-3.5673,-3.5706,-3.5744,-3.5737,-3.5782,-3.5802,-3.5843,-3.5857,-3.5891,-3.5873,-3.5891,-3.5896,-3.5901,-3.5906,-3.5781,-3.5897,-3.5896,-3.5896,-3.5896,-3.5895,0,-3.5613,-3.5626,-3.5662,-3.5698,-3.5728,-3.571,-3.5736,-3.5762,-3.5803,-3.5823,-3.5853,-3.5899,-3.5935,-3.5944,-3.5979,-3.6004,-3.5998,-3.6014,-3.6013,-3.6015,-3.592,-3.5907,-3.6019,-3.6019,-3.6019,-3.6019,-3.6019,-3.6019,-3.5678,-3.5736,-3.5738,-3.5805,-3.5817,-3.5863,-3.5879,-3.59,-3.5917,-3.597,-3.6,-3.6006,-3.6022,-3.6057,-3.6089,-3.6091,-3.6105,-3.6124,-3.6123,-3.6034,-3.6022,-3.601,-3.5998,-3.6127,-3.6127,-3.6216,-3.6217,-3.6217]}]]